Weather in Kutukovo

Russia / Ryazan Oblast     54°25′41″N   40°30′27″E
temp.,
°C
wind,
m/s
gust,
m/s
humid.,
%
clouds,
%
prec.,
mm/h
press.,
hPa
HPBL,
m
8 march, mon
mon800:00−7wsw4109080 0.2 996232
03:00−9w5138257 0.2 998294
06:00−9wsw4109294 0.0 998234
09:00−6wsw6119196 0.1 998687
12:00−4w81280100 0.4 9991452
15:00−5wnw7107667 0.6 10011168
18:00−8w47870 0.0 1004125
21:00−11wnw34910 0.0 100770
9 march, tue
tue900:00−13nw239518 0.0 100821
03:00−15nw33959 0.0 101123
06:00−17nw349727 0.0 101147
09:00−15nnw369549 0.0 1013250
12:00−11nnw358890 0.0 1014609
15:00−10nw468595 0.1 1015845
18:00−12nnw3692100 0.1 1016147
21:00−16n3895100 0.1 1019205
10 march, wed
wed1000:00−20nnw469622 0.0 1020111
03:00−23nw369837 0.0 1022104
06:00−25nw369718 0.0 1024103
09:00−23nnw479415 0.0 1026274
12:00−18nnw468762 0.0 1027591
15:00−16nnw468279 0.0 1027736
18:00−19nnw348860 0.0 102831
21:00−21nw339130 0.0 102922
11 march, thu
thu1100:00−21wnw349443 0.0 103066
03:00−21wnw349761 0.0 103068
06:00−23nw339933 0.0 103136
09:00−19nw359521 0.0 1032187
12:00−13wnw348747 0.0 1031396
15:00−10w458973 0.0 1031444
18:00−14w349576 0.0 103145
21:00−16w239538 0.0 103220
12 march, fri
fri1200:00−18wsw23960 0.0 103220
03:00−19sw23970 0.0 103221
06:00−20ssw34970 0.0 103237
09:00−17s47910 0.0 1031216
12:00−11s59840 0.0 1030459
15:00−9s6118250 0.0 1028662
18:00−10s61387100 0.0 1025546
21:00−9s71680100 0.0 1024654